Time,TemperatureF,DewpointF,PressureIn,WindDirection,WindDirectionDegrees,WindSpeedMPH,WindSpeedGustMPH,Humidity,HourlyPrecipIn,Conditions,Clouds,dailyrainin,SoftwareType,DateUTC
2013-01-05 00:00:00,42.8,40.1,30.33,WNW,290,6.0,9.0,90,0.00,,---,0.00,VWS V14.00,2013-01-05 05:00:00,
2013-01-05 00:01:00,42.8,40.1,30.33,WNW,294,6.0,6.0,90,0.00,,---,0.00,VWS V14.00,2013-01-05 05:01:00,
2013-01-05 00:06:00,42.7,40.0,30.33,WNW,286,2.0,7.0,90,0.00,,---,0.00,VWS V14.00,2013-01-05 05:06:00,
2013-01-05 00:11:00,42.6,39.9,30.32,WNW,290,5.0,7.0,90,0.00,,---,0.00,VWS V14.00,2013-01-05 05:11:00,
2013-01-05 00:16:00,42.6,40.2,30.33,WNW,288,5.0,8.0,91,0.00,,---,0.00,VWS V14.00,2013-01-05 05:16:00,
2013-01-05 00:21:00,42.5,40.1,30.33,WNW,291,5.0,8.0,91,0.00,,---,0.00,VWS V14.00,2013-01-05 05:21:00,
2013-01-05 00:26:00,42.4,39.7,30.33,WNW,299,8.0,9.0,90,0.00,,---,0.00,VWS V14.00,2013-01-05 05:26:00,
2013-01-05 00:31:00,42.4,39.7,30.32,WNW,297,9.0,9.0,90,0.00,,---,0.00,VWS V14.00,2013-01-05 05:31:00,
2013-01-05 00:36:00,42.4,39.4,30.32,WNW,298,8.0,10.0,89,0.00,,---,0.00,VWS V14.00,2013-01-05 05:36:00,
2013-01-05 00:41:00,42.3,39.3,30.32,WNW,298,7.0,10.0,89,0.00,,---,0.00,VWS V14.00,2013-01-05 05:41:00,
2013-01-05 00:46:00,42.1,38.8,30.32,WNW,298,9.0,10.0,88,0.00,,---,0.00,VWS V14.00,2013-01-05 05:46:00,
2013-01-05 00:51:00,41.9,38.6,30.33,NW,306,7.0,10.0,88,0.00,,---,0.00,VWS V14.00,2013-01-05 05:51:00,
2013-01-05 00:56:00,41.8,38.2,30.33,NW,309,6.0,11.0,87,0.00,,---,0.00,VWS V14.00,2013-01-05 05:56:00,
2013-01-05 01:01:00,41.6,38.0,30.33,NW,308,8.0,11.0,87,0.00,,---,0.00,VWS V14.00,2013-01-05 06:01:00,
2013-01-05 01:06:00,41.5,38.2,30.33,NW,322,10.0,12.0,88,0.00,,---,0.00,VWS V14.00,2013-01-05 06:06:00,
2013-01-05 01:11:00,41.4,37.8,30.33,NW,318,11.0,12.0,87,0.00,,---,0.00,VWS V14.00,2013-01-05 06:11:00,
2013-01-05 01:16:00,41.3,38.0,30.33,NW,313,10.0,12.0,88,0.00,,---,0.00,VWS V14.00,2013-01-05 06:16:00,
2013-01-05 01:21:00,41.2,37.6,30.33,NW,314,8.0,12.0,87,0.00,,---,0.00,VWS V14.00,2013-01-05 06:21:00,
2013-01-05 01:26:00,41.1,37.8,30.33,NW,326,8.0,12.0,88,0.00,,---,0.00,VWS V14.00,2013-01-05 06:26:00,
2013-01-05 01:31:00,40.9,37.3,30.34,NW,325,10.0,11.0,87,0.00,,---,0.00,VWS V14.00,2013-01-05 06:31:00,
2013-01-05 01:36:00,40.8,37.2,30.34,NW,309,8.0,11.0,87,0.00,,---,0.00,VWS V14.00,2013-01-05 06:36:00,
2013-01-05 01:41:00,40.7,37.1,30.34,NW,314,5.0,11.0,87,0.00,,---,0.00,VWS V14.00,2013-01-05 06:41:00,
2013-01-05 01:46:00,40.6,37.0,30.34,NW,316,5.0,11.0,87,0.00,,---,0.00,VWS V14.00,2013-01-05 06:46:00,
2013-01-05 01:51:00,40.5,37.2,30.35,NW,323,8.0,11.0,88,0.00,,---,0.00,VWS V14.00,2013-01-05 06:51:00,
2013-01-05 01:56:00,40.3,36.8,30.34,NW,312,6.0,11.0,87,0.00,,---,0.00,VWS V14.00,2013-01-05 06:56:00,
2013-01-05 02:01:00,40.2,36.7,30.35,NW,318,8.0,9.0,87,0.00,,---,0.00,VWS V14.00,2013-01-05 07:01:00,
2013-01-05 02:06:00,40.0,36.5,30.35,NW,325,8.0,9.0,87,0.00,,---,0.00,VWS V14.00,2013-01-05 07:06:00,
2013-01-05 02:11:00,39.9,36.3,30.36,NW,323,11.0,11.0,87,0.00,,---,0.00,VWS V14.00,2013-01-05 07:11:00,
2013-01-05 02:16:00,39.8,36.2,30.36,NW,323,9.0,13.0,87,0.00,,---,0.00,VWS V14.00,2013-01-05 07:16:00,
2013-01-05 02:21:00,39.7,35.9,30.36,NNW,329,12.0,13.0,86,0.00,,---,0.00,VWS V14.00,2013-01-05 07:21:00,
2013-01-05 02:26:00,39.6,36.1,30.36,NNW,342,10.0,13.0,87,0.00,,---,0.00,VWS V14.00,2013-01-05 07:26:00,
2013-01-05 02:31:00,39.5,35.4,30.36,NNW,341,10.0,11.0,85,0.00,,---,0.00,VWS V14.00,2013-01-05 07:31:00,
2013-01-05 02:36:00,39.3,35.2,30.36,NNW,341,11.0,13.0,85,0.00,,---,0.00,VWS V14.00,2013-01-05 07:36:00,
2013-01-05 02:41:00,39.2,34.8,30.36,NNW,333,11.0,15.0,84,0.00,,---,0.00,VWS V14.00,2013-01-05 07:41:00,
2013-01-05 02:46:00,39.1,34.4,30.36,NNW,341,10.0,15.0,83,0.00,,---,0.00,VWS V14.00,2013-01-05 07:46:00,
2013-01-05 02:51:00,38.9,33.9,30.36,NNW,344,11.0,15.0,82,0.00,,---,0.00,VWS V14.00,2013-01-05 07:51:00,
2013-01-05 02:56:00,38.9,34.2,30.36,NNW,345,8.0,15.0,83,0.00,,---,0.00,VWS V14.00,2013-01-05 07:56:00,
2013-01-05 03:01:00,38.7,34.0,30.36,North,349,10.0,11.0,83,0.00,,---,0.00,VWS V14.00,2013-01-05 08:01:00,
2013-01-05 03:06:00,38.6,33.9,30.36,NNW,347,9.0,12.0,83,0.00,,---,0.00,VWS V14.00,2013-01-05 08:06:00,
2013-01-05 03:11:00,38.5,33.8,30.36,NNW,336,8.0,12.0,83,0.00,,---,0.00,VWS V14.00,2013-01-05 08:11:00,
2013-01-05 03:16:00,38.4,33.4,30.36,NNW,348,7.0,12.0,82,0.00,,---,0.00,VWS V14.00,2013-01-05 08:16:00,
2013-01-05 03:21:00,38.3,33.6,30.36,NNW,346,8.0,12.0,83,0.00,,---,0.00,VWS V14.00,2013-01-05 08:21:00,
2013-01-05 03:26:00,38.2,33.2,30.36,NNW,343,6.0,12.0,82,0.00,,---,0.00,VWS V14.00,2013-01-05 08:26:00,
2013-01-05 03:31:00,38.1,33.1,30.37,North,350,8.0,10.0,82,0.00,,---,0.00,VWS V14.00,2013-01-05 08:31:00,
2013-01-05 03:36:00,38.0,32.7,30.36,NNW,348,8.0,10.0,81,0.00,,---,0.00,VWS V14.00,2013-01-05 08:36:00,
2013-01-05 03:41:00,37.9,32.6,30.36,North,353,7.0,10.0,81,0.00,,---,0.00,VWS V14.00,2013-01-05 08:41:00,
2013-01-05 03:46:00,37.7,32.4,30.36,NNW,343,7.0,10.0,81,0.00,,---,0.00,VWS V14.00,2013-01-05 08:46:00,
2013-01-05 03:51:00,37.7,32.7,30.36,NNW,341,8.0,11.0,82,0.00,,---,0.00,VWS V14.00,2013-01-05 08:51:00,
2013-01-05 03:56:00,37.6,32.3,30.37,NNW,337,9.0,11.0,81,0.00,,---,0.00,VWS V14.00,2013-01-05 08:56:00,
2013-01-05 04:01:00,37.5,32.5,30.37,NNW,344,6.0,8.0,82,0.00,,---,0.00,VWS V14.00,2013-01-05 09:01:00,
2013-01-05 04:06:00,37.3,32.3,30.37,NNW,333,10.0,10.0,82,0.00,,---,0.00,VWS V14.00,2013-01-05 09:06:00,
2013-01-05 04:11:00,37.3,32.3,30.37,NNW,338,7.0,10.0,82,0.00,,---,0.00,VWS V14.00,2013-01-05 09:11:00,
2013-01-05 04:16:00,37.3,32.3,30.37,NNW,336,7.0,10.0,82,0.00,,---,0.00,VWS V14.00,2013-01-05 09:16:00,
2013-01-05 04:21:00,37.2,32.2,30.37,NNW,343,8.0,10.0,82,0.00,,---,0.00,VWS V14.00,2013-01-05 09:21:00,
2013-01-05 04:26:00,37.0,32.0,30.37,NNW,329,6.0,10.0,82,0.00,,---,0.00,VWS V14.00,2013-01-05 09:26:00,
2013-01-05 04:31:00,36.9,31.9,30.38,NW,323,7.0,8.0,82,0.00,,---,0.00,VWS V14.00,2013-01-05 09:31:00,
2013-01-05 04:36:00,36.7,32.0,30.38,NNW,336,7.0,9.0,83,0.00,,---,0.00,VWS V14.00,2013-01-05 09:36:00,
2013-01-05 04:41:00,36.5,31.5,30.38,NNW,340,5.0,9.0,82,0.00,,---,0.00,VWS V14.00,2013-01-05 09:41:00,
2013-01-05 04:46:00,36.4,31.4,30.38,NNW,330,6.0,9.0,82,0.00,,---,0.00,VWS V14.00,2013-01-05 09:46:00,
2013-01-05 04:51:00,36.3,31.6,30.38,NNW,332,5.0,9.0,83,0.00,,---,0.00,VWS V14.00,2013-01-05 09:51:00,
2013-01-05 04:56:00,36.2,31.2,30.38,NNW,333,5.0,9.0,82,0.00,,---,0.00,VWS V14.00,2013-01-05 09:56:00,
2013-01-05 05:01:00,36.1,31.1,30.38,NNW,340,5.0,7.0,82,0.00,,---,0.00,VWS V14.00,2013-01-05 10:01:00,
2013-01-05 05:06:00,36.0,31.4,30.39,NNW,342,6.0,8.0,83,0.00,,---,0.00,VWS V14.00,2013-01-05 10:06:00,
2013-01-05 05:11:00,36.0,31.4,30.39,NNW,341,5.0,9.0,83,0.00,,---,0.00,VWS V14.00,2013-01-05 10:11:00,
2013-01-05 05:16:00,35.9,31.0,30.39,NNW,341,6.0,9.0,82,0.00,,---,0.00,VWS V14.00,2013-01-05 10:16:00,
2013-01-05 05:21:00,35.9,31.0,30.38,NNW,347,7.0,9.0,82,0.00,,---,0.00,VWS V14.00,2013-01-05 10:21:00,
2013-01-05 05:26:00,35.9,31.2,30.39,North,356,4.0,9.0,83,0.00,,---,0.00,VWS V14.00,2013-01-05 10:26:00,
2013-01-05 05:31:00,35.9,30.6,30.38,North,358,6.0,7.0,81,0.00,,---,0.00,VWS V14.00,2013-01-05 10:31:00,
2013-01-05 05:36:00,35.9,30.6,30.38,North,351,4.0,8.0,81,0.00,,---,0.00,VWS V14.00,2013-01-05 10:36:00,
2013-01-05 05:41:00,35.9,30.3,30.38,North,0,5.0,8.0,80,0.00,,---,0.00,VWS V14.00,2013-01-05 10:41:00,
2013-01-05 05:46:00,35.9,30.3,30.39,North,0,5.0,8.0,80,0.00,,---,0.00,VWS V14.00,2013-01-05 10:46:00,
2013-01-05 05:51:00,35.8,30.2,30.38,North,0,4.0,8.0,80,0.00,,---,0.00,VWS V14.00,2013-01-05 10:51:00,
2013-01-05 05:56:00,35.8,30.5,30.38,North,353,4.0,8.0,81,0.00,,---,0.00,VWS V14.00,2013-01-05 10:56:00,
2013-01-05 06:01:00,35.8,30.2,30.38,North,354,2.0,4.0,80,0.00,,---,0.00,VWS V14.00,2013-01-05 11:01:00,
2013-01-05 06:06:00,35.7,30.5,30.39,North,354,2.0,5.0,81,0.00,,---,0.00,VWS V14.00,2013-01-05 11:06:00,
2013-01-05 06:11:00,35.6,30.0,30.39,North,354,1.0,5.0,80,0.00,,---,0.00,VWS V14.00,2013-01-05 11:11:00,
2013-01-05 06:16:00,35.6,30.4,30.40,North,351,1.0,5.0,81,0.00,,---,0.00,VWS V14.00,2013-01-05 11:16:00,
2013-01-05 06:21:00,35.5,30.3,30.40,North,351,5.0,6.0,81,0.00,,---,0.00,VWS V14.00,2013-01-05 11:21:00,
2013-01-05 06:26:00,35.5,30.6,30.40,NNW,347,5.0,6.0,82,0.00,,---,0.00,VWS V14.00,2013-01-05 11:26:00,
2013-01-05 06:31:00,35.4,30.5,30.41,NNW,341,5.0,5.0,82,0.00,,---,0.00,VWS V14.00,2013-01-05 11:31:00,
2013-01-05 06:36:00,35.2,30.0,30.41,NNW,341,4.0,6.0,81,0.00,,---,0.00,VWS V14.00,2013-01-05 11:36:00,
2013-01-05 06:41:00,35.1,30.2,30.41,NNW,341,4.0,6.0,82,0.00,,---,0.00,VWS V14.00,2013-01-05 11:41:00,
2013-01-05 06:46:00,35.0,30.1,30.41,NNW,339,5.0,6.0,82,0.00,,---,0.00,VWS V14.00,2013-01-05 11:46:00,
2013-01-05 06:51:00,34.9,30.3,30.42,NNW,339,4.0,6.0,83,0.00,,---,0.00,VWS V14.00,2013-01-05 11:51:00,
2013-01-05 06:56:00,34.9,30.3,30.42,NNW,347,5.0,8.0,83,0.00,,---,0.00,VWS V14.00,2013-01-05 11:56:00,
2013-01-05 07:01:00,34.9,30.6,30.42,NNW,348,6.0,7.0,84,0.00,,---,0.00,VWS V14.00,2013-01-05 12:01:00,
2013-01-05 07:06:00,35.0,30.4,30.42,North,0,6.0,7.0,83,0.00,,---,0.00,VWS V14.00,2013-01-05 12:06:00,
2013-01-05 07:11:00,34.9,30.3,30.42,North,0,5.0,7.0,83,0.00,,---,0.00,VWS V14.00,2013-01-05 12:11:00,
2013-01-05 07:16:00,35.0,30.4,30.42,North,0,5.0,7.0,83,0.00,,---,0.00,VWS V14.00,2013-01-05 12:16:00,
2013-01-05 07:21:00,35.0,30.1,30.43,North,0,4.0,7.0,82,0.00,,---,0.00,VWS V14.00,2013-01-05 12:21:00,
2013-01-05 07:26:00,34.9,30.0,30.43,NNW,339,4.0,7.0,82,0.00,,---,0.00,VWS V14.00,2013-01-05 12:26:00,
2013-01-05 07:31:00,34.8,30.2,30.44,NNW,333,5.0,6.0,83,0.00,,---,0.00,VWS V14.00,2013-01-05 12:31:00,
2013-01-05 07:36:00,34.7,30.1,30.44,NNW,332,4.0,6.0,83,0.00,,---,0.00,VWS V14.00,2013-01-05 12:36:00,
2013-01-05 07:41:00,34.7,30.1,30.44,NNW,334,5.0,6.0,83,0.00,,---,0.00,VWS V14.00,2013-01-05 12:41:00,
2013-01-05 07:46:00,34.5,29.9,30.44,NNW,337,6.0,7.0,83,0.00,,---,0.00,VWS V14.00,2013-01-05 12:46:00,
2013-01-05 07:51:00,34.4,29.8,30.44,NNW,339,4.0,7.0,83,0.00,,---,0.00,VWS V14.00,2013-01-05 12:51:00,
2013-01-05 07:56:00,34.4,29.8,30.44,NNW,339,4.0,7.0,83,0.00,,---,0.00,VWS V14.00,2013-01-05 12:56:00,
2013-01-05 08:01:00,34.3,30.0,30.45,NNW,332,5.0,6.0,84,0.00,,---,0.00,VWS V14.00,2013-01-05 13:01:00,
2013-01-05 08:06:00,34.3,30.0,30.45,NW,323,6.0,7.0,84,0.00,,---,0.00,VWS V14.00,2013-01-05 13:06:00,
2013-01-05 08:11:00,34.2,29.9,30.45,NW,321,5.0,8.0,84,0.00,,---,0.00,VWS V14.00,2013-01-05 13:11:00,
2013-01-05 08:16:00,34.2,29.9,30.44,NNW,341,7.0,8.0,84,0.00,,---,0.00,VWS V14.00,2013-01-05 13:16:00,
2013-01-05 08:21:00,34.3,30.0,30.45,NNW,346,7.0,10.0,84,0.00,,---,0.00,VWS V14.00,2013-01-05 13:21:00,
2013-01-05 08:26:00,34.5,30.2,30.44,North,351,7.0,10.0,84,0.00,,---,0.00,VWS V14.00,2013-01-05 13:26:00,
2013-01-05 08:31:00,34.7,30.1,30.44,North,351,7.0,10.0,83,0.00,,---,0.00,VWS V14.00,2013-01-05 13:31:00,
2013-01-05 08:36:00,34.9,30.6,30.44,North,358,5.0,10.0,84,0.00,,---,0.00,VWS V14.00,2013-01-05 13:36:00,
2013-01-05 08:41:00,35.1,30.5,30.45,North,356,6.0,10.0,83,0.00,,---,0.00,VWS V14.00,2013-01-05 13:41:00,
2013-01-05 08:46:00,35.2,30.6,30.45,North,349,6.0,10.0,83,0.00,,---,0.00,VWS V14.00,2013-01-05 13:46:00,
2013-01-05 08:51:00,35.3,31.0,30.45,North,359,4.0,10.0,84,0.00,,---,0.00,VWS V14.00,2013-01-05 13:51:00,
2013-01-05 08:56:00,35.4,31.1,30.45,NNW,347,5.0,10.0,84,0.00,,---,0.00,VWS V14.00,2013-01-05 13:56:00,
2013-01-05 09:01:00,35.6,31.2,30.45,North,351,4.0,7.0,84,0.00,,---,0.00,VWS V14.00,2013-01-05 14:01:00,
2013-01-05 09:06:00,35.8,31.7,30.45,North,358,5.0,7.0,85,0.00,,---,0.00,VWS V14.00,2013-01-05 14:06:00,
2013-01-05 09:11:00,35.9,31.8,30.45,North,350,8.0,9.0,85,0.00,,---,0.00,VWS V14.00,2013-01-05 14:11:00,
2013-01-05 09:16:00,36.2,31.5,30.46,North,0,7.0,11.0,83,0.00,,---,0.00,VWS V14.00,2013-01-05 14:16:00,
2013-01-05 09:21:00,36.5,31.8,30.46,North,2,7.0,11.0,83,0.00,,---,0.00,VWS V14.00,2013-01-05 14:21:00,
2013-01-05 09:26:00,36.9,32.2,30.47,NNW,347,9.0,12.0,83,0.00,,---,0.00,VWS V14.00,2013-01-05 14:26:00,
2013-01-05 09:31:00,37.1,32.1,30.46,North,354,8.0,10.0,82,0.00,,---,0.00,VWS V14.00,2013-01-05 14:31:00,
2013-01-05 09:36:00,37.2,31.6,30.45,NNE,27,8.0,10.0,80,0.00,,---,0.00,VWS V14.00,2013-01-05 14:36:00,
2013-01-05 09:41:00,37.5,31.9,30.45,NNE,16,6.0,10.0,80,0.00,,---,0.00,VWS V14.00,2013-01-05 14:41:00,
2013-01-05 09:46:00,37.6,31.4,30.45,NNE,13,5.0,11.0,78,0.00,,---,0.00,VWS V14.00,2013-01-05 14:46:00,
2013-01-05 09:51:00,37.8,31.9,30.45,NNE,25,9.0,11.0,79,0.00,,---,0.00,VWS V14.00,2013-01-05 14:51:00,
2013-01-05 09:56:00,37.9,31.7,30.45,NNE,21,10.0,11.0,78,0.00,,---,0.00,VWS V14.00,2013-01-05 14:56:00,
2013-01-05 10:01:00,38.1,31.5,30.46,NNE,27,9.0,9.0,77,0.00,,---,0.00,VWS V14.00,2013-01-05 15:01:00,
2013-01-05 10:06:00,38.2,32.3,30.45,NNE,29,7.0,9.0,79,0.00,,---,0.00,VWS V14.00,2013-01-05 15:06:00,
2013-01-05 10:11:00,38.4,31.8,30.45,NNE,13,5.0,10.0,77,0.00,,---,0.00,VWS V14.00,2013-01-05 15:11:00,
2013-01-05 10:16:00,38.6,32.0,30.45,NNE,26,8.0,10.0,77,0.00,,---,0.00,VWS V14.00,2013-01-05 15:16:00,
2013-01-05 10:21:00,38.8,31.9,30.45,NNE,22,4.0,10.0,76,0.00,,---,0.00,VWS V14.00,2013-01-05 15:21:00,
2013-01-05 10:26:00,39.0,32.4,30.44,NNE,30,6.0,10.0,77,0.00,,---,0.00,VWS V14.00,2013-01-05 15:26:00,
2013-01-05 10:31:00,39.1,32.2,30.45,NNE,25,7.0,9.0,76,0.00,,---,0.00,VWS V14.00,2013-01-05 15:31:00,
2013-01-05 10:36:00,39.3,32.4,30.44,NNE,32,5.0,9.0,76,0.00,,---,0.00,VWS V14.00,2013-01-05 15:36:00,
2013-01-05 10:41:00,39.5,32.2,30.44,NNE,30,8.0,10.0,75,0.00,,---,0.00,VWS V14.00,2013-01-05 15:41:00,
2013-01-05 10:46:00,39.7,32.4,30.44,NNE,19,4.0,10.0,75,0.00,,---,0.00,VWS V14.00,2013-01-05 15:46:00,
2013-01-05 10:51:00,39.9,32.6,30.44,NNE,25,3.0,10.0,75,0.00,,---,0.00,VWS V14.00,2013-01-05 15:51:00,
2013-01-05 10:56:00,40.0,32.4,30.44,NE,43,2.0,10.0,74,0.00,,---,0.00,VWS V14.00,2013-01-05 15:56:00,
2013-01-05 11:01:00,40.1,32.5,30.44,NE,40,2.0,5.0,74,0.00,,---,0.00,VWS V14.00,2013-01-05 16:01:00,
2013-01-05 11:06:00,40.3,32.7,30.43,NNE,33,5.0,8.0,74,0.00,,---,0.00,VWS V14.00,2013-01-05 16:06:00,
2013-01-05 11:11:00,40.5,32.9,30.43,North,1,4.0,8.0,74,0.00,,---,0.00,VWS V14.00,2013-01-05 16:11:00,
2013-01-05 11:16:00,40.8,32.8,30.43,NNE,15,4.0,8.0,73,0.00,,---,0.00,VWS V14.00,2013-01-05 16:16:00,
2013-01-05 11:21:00,40.9,32.9,30.42,NE,34,3.0,8.0,73,0.00,,---,0.00,VWS V14.00,2013-01-05 16:21:00,
2013-01-05 11:26:00,41.2,33.5,30.42,North,3,5.0,8.0,74,0.00,,---,0.00,VWS V14.00,2013-01-05 16:26:00,
2013-01-05 11:31:00,41.4,34.1,30.42,NE,35,2.0,5.0,75,0.00,,---,0.00,VWS V14.00,2013-01-05 16:31:00,
2013-01-05 11:36:00,41.4,33.1,30.42,NE,48,2.0,5.0,72,0.00,,---,0.00,VWS V14.00,2013-01-05 16:36:00,
2013-01-05 11:41:00,41.5,33.2,30.42,NE,37,2.0,5.0,72,0.00,,---,0.00,VWS V14.00,2013-01-05 16:41:00,
2013-01-05 11:46:00,41.8,33.1,30.41,NNE,28,4.0,5.0,71,0.00,,---,0.00,VWS V14.00,2013-01-05 16:46:00,
2013-01-05 11:51:00,42.0,33.6,30.41,NNE,27,6.0,6.0,72,0.00,,---,0.00,VWS V14.00,2013-01-05 16:51:00,
2013-01-05 11:56:00,42.1,33.4,30.41,NNE,25,2.0,6.0,71,0.00,,---,0.00,VWS V14.00,2013-01-05 16:56:00,
2013-01-05 12:01:00,42.3,33.6,30.41,NE,55,5.0,6.0,71,0.00,,---,0.00,VWS V14.00,2013-01-05 17:01:00,
2013-01-05 12:06:00,42.4,33.3,30.40,NE,37,5.0,6.0,70,0.00,,---,0.00,VWS V14.00,2013-01-05 17:06:00,
2013-01-05 12:11:00,42.6,33.5,30.41,NE,50,1.0,6.0,70,0.00,,---,0.00,VWS V14.00,2013-01-05 17:11:00,
2013-01-05 12:16:00,42.7,33.2,30.41,NE,50,0.0,6.0,69,0.00,,---,0.00,VWS V14.00,2013-01-05 17:16:00,
2013-01-05 12:21:00,42.7,33.6,30.41,NE,50,0.0,6.0,70,0.00,,---,0.00,VWS V14.00,2013-01-05 17:21:00,
2013-01-05 12:26:00,42.8,33.7,30.40,NE,50,1.0,6.0,70,0.00,,---,0.00,VWS V14.00,2013-01-05 17:26:00,
2013-01-05 12:31:00,43.0,33.5,30.40,NE,50,1.0,2.0,69,0.00,,---,0.00,VWS V14.00,2013-01-05 17:31:00,
2013-01-05 12:36:00,43.2,33.4,30.40,NE,50,0.0,2.0,68,0.00,,---,0.00,VWS V14.00,2013-01-05 17:36:00,
2013-01-05 12:41:00,43.3,34.2,30.40,East,90,1.0,2.0,70,0.00,,---,0.00,VWS V14.00,2013-01-05 17:41:00,
2013-01-05 12:46:00,43.3,34.5,30.40,East,79,2.0,3.0,71,0.00,,---,0.00,VWS V14.00,2013-01-05 17:46:00,
2013-01-05 12:51:00,43.4,35.3,30.39,East,94,1.0,3.0,73,0.00,,---,0.00,VWS V14.00,2013-01-05 17:51:00,
2013-01-05 12:56:00,43.6,35.9,30.39,ESE,105,2.0,4.0,74,0.00,,---,0.00,VWS V14.00,2013-01-05 17:56:00,
2013-01-05 13:01:00,44.0,36.3,30.39,SE,141,3.0,3.0,74,0.00,,---,0.00,VWS V14.00,2013-01-05 18:01:00,
2013-01-05 13:06:00,44.2,36.1,30.39,East,95,1.0,3.0,73,0.00,,---,0.00,VWS V14.00,2013-01-05 18:06:00,
2013-01-05 13:11:00,44.4,36.3,30.39,ESE,109,0.0,4.0,73,0.00,,---,0.00,VWS V14.00,2013-01-05 18:11:00,
2013-01-05 13:16:00,44.6,36.5,30.39,East,100,0.0,4.0,73,0.00,,---,0.00,VWS V14.00,2013-01-05 18:16:00,
2013-01-05 13:21:00,44.7,36.6,30.39,ESE,106,1.0,4.0,73,0.00,,---,0.00,VWS V14.00,2013-01-05 18:21:00,
2013-01-05 13:25:00,45.2,37.4,30.38,ESE,105,3.0,4.0,74,0.00,,---,0.00,VWS V14.00,2013-01-05 18:25:00,
2013-01-05 13:30:00,45.4,37.3,30.38,East,93,0.0,2.0,73,0.00,,---,0.00,VWS V14.00,2013-01-05 18:30:00,
2013-01-05 13:35:00,45.5,37.4,30.38,East,91,0.0,3.0,73,0.00,,---,0.00,VWS V14.00,2013-01-05 18:35:00,
2013-01-05 13:40:00,45.6,37.1,30.38,ESE,123,2.0,4.0,72,0.00,,---,0.00,VWS V14.00,2013-01-05 18:40:00,
2013-01-05 13:45:00,45.7,36.8,30.38,East,98,1.0,4.0,71,0.00,,---,0.00,VWS V14.00,2013-01-05 18:45:00,
2013-01-05 13:50:00,45.8,37.3,30.38,ESE,116,2.0,4.0,72,0.00,,---,0.00,VWS V14.00,2013-01-05 18:50:00,
2013-01-05 13:55:00,46.1,36.9,30.38,ESE,107,2.0,5.0,70,0.00,,---,0.00,VWS V14.00,2013-01-05 18:55:00,
2013-01-05 14:00:00,46.3,36.7,30.38,SE,126,3.0,4.0,69,0.00,,---,0.00,VWS V14.00,2013-01-05 19:00:00,
2013-01-05 14:05:00,46.4,36.4,30.38,East,97,2.0,4.0,68,0.00,,---,0.00,VWS V14.00,2013-01-05 19:05:00,
2013-01-05 14:10:00,46.4,36.8,30.38,SE,144,1.0,5.0,69,0.00,,---,0.00,VWS V14.00,2013-01-05 19:10:00,
2013-01-05 14:15:00,46.5,36.9,30.38,SSE,147,0.0,5.0,69,0.00,,---,0.00,VWS V14.00,2013-01-05 19:15:00,
2013-01-05 14:20:00,46.5,37.6,30.38,SSE,149,7.0,7.0,71,0.00,,---,0.00,VWS V14.00,2013-01-05 19:20:00,
2013-01-05 14:25:00,46.6,38.1,30.38,South,181,3.0,7.0,72,0.00,,---,0.00,VWS V14.00,2013-01-05 19:25:00,
2013-01-05 14:30:00,46.7,38.2,30.38,SSW,199,1.0,1.0,72,0.00,,---,0.00,VWS V14.00,2013-01-05 19:30:00,
2013-01-05 14:35:00,46.7,38.5,30.38,South,191,3.0,4.0,73,0.00,,---,0.00,VWS V14.00,2013-01-05 19:35:00,
2013-01-05 14:40:00,46.8,38.3,30.38,South,175,2.0,4.0,72,0.00,,---,0.00,VWS V14.00,2013-01-05 19:40:00,
2013-01-05 14:45:00,46.8,38.6,30.38,SSE,162,1.0,4.0,73,0.00,,---,0.00,VWS V14.00,2013-01-05 19:45:00,
2013-01-05 14:50:00,46.9,38.7,30.38,SSE,165,3.0,6.0,73,0.00,,---,0.00,VWS V14.00,2013-01-05 19:50:00,
2013-01-05 14:55:00,46.9,39.1,30.38,SE,144,3.0,8.0,74,0.00,,---,0.00,VWS V14.00,2013-01-05 19:55:00,
2013-01-05 15:00:00,47.1,39.6,30.38,SE,127,3.0,3.0,75,0.00,,---,0.00,VWS V14.00,2013-01-05 20:00:00,
2013-01-05 15:05:00,47.1,39.6,30.37,SSE,152,6.0,8.0,75,0.00,,---,0.00,VWS V14.00,2013-01-05 20:05:00,
2013-01-05 15:10:00,47.1,39.6,30.37,SE,124,3.0,8.0,75,0.00,,---,0.00,VWS V14.00,2013-01-05 20:10:00,
2013-01-05 15:15:00,47.0,39.2,30.37,SE,129,3.0,8.0,74,0.00,,---,0.00,VWS V14.00,2013-01-05 20:15:00,
2013-01-05 15:20:00,47.0,39.5,30.37,SSE,164,2.0,9.0,75,0.00,,---,0.00,VWS V14.00,2013-01-05 20:20:00,
2013-01-05 15:25:00,47.0,39.5,30.37,SSE,149,1.0,9.0,75,0.00,,---,0.00,VWS V14.00,2013-01-05 20:25:00,
2013-01-05 15:30:00,47.0,39.8,30.37,ESE,122,2.0,4.0,76,0.00,,---,0.00,VWS V14.00,2013-01-05 20:30:00,
2013-01-05 15:35:00,47.0,39.5,30.36,SE,130,4.0,6.0,75,0.00,,---,0.00,VWS V14.00,2013-01-05 20:35:00,
2013-01-05 15:40:00,47.0,39.5,30.37,SE,135,1.0,6.0,75,0.00,,---,0.00,VWS V14.00,2013-01-05 20:40:00,
2013-01-05 15:45:00,46.9,39.4,30.37,SE,137,1.0,6.0,75,0.00,,---,0.00,VWS V14.00,2013-01-05 20:45:00,
2013-01-05 15:50:00,46.8,39.3,30.37,SE,133,3.0,6.0,75,0.00,,---,0.00,VWS V14.00,2013-01-05 20:50:00,
2013-01-05 15:55:00,46.7,39.2,30.36,SE,131,0.0,6.0,75,0.00,,---,0.00,VWS V14.00,2013-01-05 20:55:00,
2013-01-05 16:00:00,46.7,39.2,30.36,ESE,122,0.0,1.0,75,0.00,,---,0.00,VWS V14.00,2013-01-05 21:00:00,
2013-01-05 16:05:00,46.7,39.2,30.37,ESE,123,2.0,7.0,75,0.00,,---,0.00,VWS V14.00,2013-01-05 21:05:00,
2013-01-05 16:10:00,46.6,38.8,30.37,ESE,113,4.0,7.0,74,0.00,,---,0.00,VWS V14.00,2013-01-05 21:10:00,
2013-01-05 16:15:00,46.5,38.7,30.37,ESE,108,1.0,7.0,74,0.00,,---,0.00,VWS V14.00,2013-01-05 21:15:00,
2013-01-05 16:20:00,46.4,38.6,30.36,ESE,106,3.0,7.0,74,0.00,,---,0.00,VWS V14.00,2013-01-05 21:20:00,
2013-01-05 16:25:00,46.2,38.7,30.36,ESE,111,3.0,7.0,75,0.00,,---,0.00,VWS V14.00,2013-01-05 21:25:00,
2013-01-05 16:30:00,46.1,38.3,30.37,ESE,119,3.0,4.0,74,0.00,,---,0.00,VWS V14.00,2013-01-05 21:30:00,
2013-01-05 16:35:00,45.9,38.1,30.37,ESE,122,4.0,6.0,74,0.00,,---,0.00,VWS V14.00,2013-01-05 21:35:00,
2013-01-05 16:40:00,45.8,38.7,30.36,ESE,107,0.0,6.0,76,0.00,,---,0.00,VWS V14.00,2013-01-05 21:40:00,
2013-01-05 16:45:00,45.8,38.7,30.37,East,94,1.0,6.0,76,0.00,,---,0.00,VWS V14.00,2013-01-05 21:45:00,
2013-01-05 16:50:00,45.6,38.5,30.37,ESE,118,0.0,6.0,76,0.00,,---,0.00,VWS V14.00,2013-01-05 21:50:00,
2013-01-05 16:55:00,45.5,38.7,30.37,ESE,102,2.0,6.0,77,0.00,,---,0.00,VWS V14.00,2013-01-05 21:55:00,
2013-01-05 17:00:00,45.4,38.6,30.37,East,97,3.0,3.0,77,0.00,,---,0.00,VWS V14.00,2013-01-05 22:00:00,
2013-01-05 17:05:00,45.2,39.1,30.37,East,95,1.0,3.0,79,0.00,,---,0.00,VWS V14.00,2013-01-05 22:05:00,
2013-01-05 17:10:00,45.1,38.7,30.38,ENE,76,0.0,3.0,78,0.00,,---,0.00,VWS V14.00,2013-01-05 22:10:00,
2013-01-05 17:15:00,44.9,38.8,30.37,ENE,76,0.0,3.0,79,0.00,,---,0.00,VWS V14.00,2013-01-05 22:15:00,
2013-01-05 17:20:00,44.7,38.6,30.38,ENE,69,1.0,3.0,79,0.00,,---,0.00,VWS V14.00,2013-01-05 22:20:00,
2013-01-05 17:25:00,44.6,38.2,30.38,ENE,69,0.0,3.0,78,0.00,,---,0.00,VWS V14.00,2013-01-05 22:25:00,
2013-01-05 17:30:00,44.4,38.3,30.39,ENE,69,0.0,0.0,79,0.00,,---,0.00,VWS V14.00,2013-01-05 22:30:00,
2013-01-05 17:35:00,44.2,37.8,30.39,ENE,69,0.0,0.0,78,0.00,,---,0.00,VWS V14.00,2013-01-05 22:35:00,
2013-01-05 17:40:00,43.9,37.5,30.39,ENE,69,0.0,0.0,78,0.00,,---,0.00,VWS V14.00,2013-01-05 22:40:00,
2013-01-05 17:45:00,43.8,37.7,30.39,ENE,69,0.0,0.0,79,0.00,,---,0.00,VWS V14.00,2013-01-05 22:45:00,
2013-01-05 17:50:00,43.6,37.8,30.40,ENE,69,0.0,0.0,80,0.00,,---,0.00,VWS V14.00,2013-01-05 22:50:00,
2013-01-05 17:55:00,43.4,37.0,30.40,ENE,69,0.0,0.0,78,0.00,,---,0.00,VWS V14.00,2013-01-05 22:55:00,
2013-01-05 18:00:00,43.3,37.2,30.40,ENE,69,0.0,0.0,79,0.00,,---,0.00,VWS V14.00,2013-01-05 23:00:00,
2013-01-05 18:05:00,43.2,37.1,30.40,ENE,69,0.0,0.0,79,0.00,,---,0.00,VWS V14.00,2013-01-05 23:05:00,
2013-01-05 18:10:00,43.0,37.9,30.40,ENE,69,0.0,0.0,82,0.00,,---,0.00,VWS V14.00,2013-01-05 23:10:00,
2013-01-05 18:15:00,42.9,38.4,30.40,ENE,69,0.0,0.0,84,0.00,,---,0.00,VWS V14.00,2013-01-05 23:15:00,
2013-01-05 18:20:00,42.8,38.3,30.40,ENE,69,0.0,0.0,84,0.00,,---,0.00,VWS V14.00,2013-01-05 23:20:00,
2013-01-05 18:25:00,42.7,38.2,30.40,ENE,69,0.0,0.0,84,0.00,,---,0.00,VWS V14.00,2013-01-05 23:25:00,
2013-01-05 18:30:00,42.5,37.7,30.40,ENE,69,0.0,0.0,83,0.00,,---,0.00,VWS V14.00,2013-01-05 23:30:00,
2013-01-05 18:35:00,42.3,38.4,30.40,ENE,69,0.0,0.0,86,0.00,,---,0.00,VWS V14.00,2013-01-05 23:35:00,
2013-01-05 18:40:00,42.2,38.6,30.40,ENE,69,0.0,0.0,87,0.00,,---,0.00,VWS V14.00,2013-01-05 23:40:00,
2013-01-05 18:45:00,42.2,39.2,30.40,ENE,69,0.0,0.0,89,0.00,,---,0.00,VWS V14.00,2013-01-05 23:45:00,
2013-01-05 18:50:00,42.2,39.5,30.39,ENE,69,0.0,0.0,90,0.00,,---,0.00,VWS V14.00,2013-01-05 23:50:00,
2013-01-05 18:55:00,42.1,39.4,30.40,ENE,69,0.0,0.0,90,0.00,,---,0.00,VWS V14.00,2013-01-05 23:55:00,
2013-01-05 19:00:00,42.1,39.7,30.40,ENE,69,0.0,0.0,91,0.00,,---,0.00,VWS V14.00,2013-01-06 00:00:00,
2013-01-05 19:05:00,42.1,39.4,30.40,ENE,69,0.0,0.0,90,0.00,,---,0.00,VWS V14.00,2013-01-06 00:05:00,
2013-01-05 19:10:00,42.0,39.0,30.40,ENE,69,0.0,0.0,89,0.00,,---,0.00,VWS V14.00,2013-01-06 00:10:00,
2013-01-05 19:15:00,41.9,39.5,30.40,ENE,69,0.0,0.0,91,0.00,,---,0.00,VWS V14.00,2013-01-06 00:15:00,
2013-01-05 19:20:00,41.8,39.1,30.40,ENE,69,0.0,0.0,90,0.00,,---,0.00,VWS V14.00,2013-01-06 00:20:00,
2013-01-05 19:25:00,41.6,38.9,30.40,ENE,69,0.0,0.0,90,0.00,,---,0.00,VWS V14.00,2013-01-06 00:25:00,
2013-01-05 19:30:00,41.5,38.8,30.40,ENE,69,0.0,0.0,90,0.00,,---,0.00,VWS V14.00,2013-01-06 00:30:00,
2013-01-05 19:35:00,41.3,38.6,30.40,ENE,69,0.0,0.0,90,0.00,,---,0.00,VWS V14.00,2013-01-06 00:35:00,
2013-01-05 19:40:00,41.2,38.8,30.40,ENE,69,0.0,0.0,91,0.00,,---,0.00,VWS V14.00,2013-01-06 00:40:00,
2013-01-05 19:45:00,41.2,39.6,30.41,ENE,69,0.0,0.0,94,0.00,,---,0.00,VWS V14.00,2013-01-06 00:45:00,
2013-01-05 19:50:00,41.1,39.5,30.40,ENE,69,0.0,0.0,94,0.00,,---,0.00,VWS V14.00,2013-01-06 00:50:00,
2013-01-05 19:55:00,41.0,39.1,30.41,ENE,69,0.0,0.0,93,0.00,,---,0.00,VWS V14.00,2013-01-06 00:55:00,
2013-01-05 20:00:00,41.0,39.4,30.40,ENE,69,0.0,0.0,94,0.00,,---,0.00,VWS V14.00,2013-01-06 01:00:00,
2013-01-05 20:05:00,41.0,39.7,30.39,ENE,69,0.0,0.0,95,0.00,,---,0.00,VWS V14.00,2013-01-06 01:05:00,
2013-01-05 20:10:00,41.1,39.8,30.39,ENE,69,0.0,0.0,95,0.00,,---,0.00,VWS V14.00,2013-01-06 01:10:00,
2013-01-05 20:15:00,41.1,39.8,30.38,ENE,69,0.0,0.0,95,0.00,,---,0.00,VWS V14.00,2013-01-06 01:15:00,
2013-01-05 20:20:00,41.1,39.8,30.39,ENE,69,0.0,0.0,95,0.00,,---,0.00,VWS V14.00,2013-01-06 01:20:00,
2013-01-05 20:25:00,40.9,39.0,30.39,ENE,69,0.0,0.0,93,0.00,,---,0.00,VWS V14.00,2013-01-06 01:25:00,
2013-01-05 20:30:00,40.9,39.3,30.39,ENE,69,0.0,0.0,94,0.00,,---,0.00,VWS V14.00,2013-01-06 01:30:00,
2013-01-05 20:35:00,40.9,39.3,30.39,ENE,69,0.0,0.0,94,0.00,,---,0.00,VWS V14.00,2013-01-06 01:35:00,
2013-01-05 20:40:00,40.9,39.3,30.39,ENE,69,0.0,0.0,94,0.00,,---,0.00,VWS V14.00,2013-01-06 01:40:00,
2013-01-05 20:45:00,40.9,38.8,30.38,ENE,69,0.0,0.0,92,0.00,,---,0.00,VWS V14.00,2013-01-06 01:45:00,
2013-01-05 20:50:00,40.9,38.5,30.38,ENE,69,0.0,0.0,91,0.00,,---,0.00,VWS V14.00,2013-01-06 01:50:00,
2013-01-05 20:55:00,40.9,38.2,30.38,ENE,69,0.0,1.0,90,0.00,,---,0.00,VWS V14.00,2013-01-06 01:55:00,
2013-01-05 21:00:00,40.9,38.5,30.38,ENE,69,0.0,0.0,91,0.00,,---,0.00,VWS V14.00,2013-01-06 02:00:00,
2013-01-05 21:05:00,40.9,38.2,30.38,ENE,69,0.0,0.0,90,0.00,,---,0.00,VWS V14.00,2013-01-06 02:05:00,
2013-01-05 21:10:00,40.9,38.5,30.38,ENE,69,0.0,0.0,91,0.00,,---,0.00,VWS V14.00,2013-01-06 02:10:00,
2013-01-05 21:15:00,40.9,38.8,30.39,ENE,69,0.0,0.0,92,0.00,,---,0.00,VWS V14.00,2013-01-06 02:15:00,
2013-01-05 21:20:00,40.9,38.8,30.39,ENE,69,0.0,0.0,92,0.00,,---,0.00,VWS V14.00,2013-01-06 02:20:00,
2013-01-05 21:25:00,40.8,38.4,30.38,ENE,69,0.0,0.0,91,0.00,,---,0.00,VWS V14.00,2013-01-06 02:25:00,
2013-01-05 21:30:00,40.8,38.4,30.38,ENE,69,0.0,0.0,91,0.00,,---,0.00,VWS V14.00,2013-01-06 02:30:00,
2013-01-05 21:35:00,40.7,38.6,30.38,ENE,69,0.0,0.0,92,0.00,,---,0.00,VWS V14.00,2013-01-06 02:35:00,
2013-01-05 21:40:00,40.7,38.8,30.38,ENE,69,0.0,0.0,93,0.00,,---,0.00,VWS V14.00,2013-01-06 02:40:00,
2013-01-05 21:45:00,40.6,38.5,30.38,ENE,69,0.0,0.0,92,0.00,,---,0.00,VWS V14.00,2013-01-06 02:45:00,
2013-01-05 21:50:00,40.5,38.4,30.37,ENE,69,0.0,0.0,92,0.00,,---,0.00,VWS V14.00,2013-01-06 02:50:00,
2013-01-05 21:55:00,40.5,38.4,30.37,ENE,69,0.0,0.0,92,0.00,,---,0.00,VWS V14.00,2013-01-06 02:55:00,
2013-01-05 22:00:00,40.5,38.4,30.38,ENE,69,0.0,0.0,92,0.00,,---,0.00,VWS V14.00,2013-01-06 03:00:00,
2013-01-05 22:05:00,40.5,38.9,30.37,ENE,69,0.0,0.0,94,0.00,,---,0.00,VWS V14.00,2013-01-06 03:05:00,
2013-01-05 22:10:00,40.5,39.2,30.37,ENE,69,0.0,0.0,95,0.00,,---,0.00,VWS V14.00,2013-01-06 03:10:00,
2013-01-05 22:15:00,40.3,38.4,30.37,ENE,69,0.0,0.0,93,0.00,,---,0.00,VWS V14.00,2013-01-06 03:15:00,
2013-01-05 22:20:00,40.3,39.0,30.37,ENE,69,0.0,0.0,95,0.00,,---,0.00,VWS V14.00,2013-01-06 03:20:00,
2013-01-05 22:25:00,40.2,38.6,30.36,ENE,69,0.0,0.0,94,0.00,,---,0.00,VWS V14.00,2013-01-06 03:25:00,
2013-01-05 22:30:00,40.1,38.2,30.37,ENE,69,0.0,0.0,93,0.00,,---,0.00,VWS V14.00,2013-01-06 03:30:00,
2013-01-05 22:35:00,40.1,38.8,30.36,ENE,69,0.0,0.0,95,0.00,,---,0.00,VWS V14.00,2013-01-06 03:35:00,
2013-01-05 22:40:00,40.1,39.3,30.36,ENE,69,0.0,0.0,97,0.00,,---,0.00,VWS V14.00,2013-01-06 03:40:00,
2013-01-05 22:45:00,40.2,39.7,30.36,ENE,69,0.0,0.0,98,0.00,,---,0.00,VWS V14.00,2013-01-06 03:45:00,
2013-01-05 22:50:00,40.3,39.8,30.36,ENE,69,0.0,0.0,98,0.00,,---,0.00,VWS V14.00,2013-01-06 03:50:00,
2013-01-05 22:55:00,40.3,39.8,30.36,ENE,69,0.0,0.0,98,0.00,,---,0.00,VWS V14.00,2013-01-06 03:55:00,
2013-01-05 23:00:00,40.3,39.8,30.35,ENE,69,0.0,0.0,98,0.00,,---,0.00,VWS V14.00,2013-01-06 04:00:00,
2013-01-05 23:05:00,40.3,40.0,30.35,ENE,69,0.0,0.0,99,0.00,,---,0.00,VWS V14.00,2013-01-06 04:05:00,
2013-01-05 23:10:00,40.3,39.8,30.35,ENE,69,0.0,0.0,98,0.00,,---,0.00,VWS V14.00,2013-01-06 04:10:00,
2013-01-05 23:15:00,40.3,39.8,30.35,ENE,69,0.0,0.0,98,0.00,,---,0.00,VWS V14.00,2013-01-06 04:15:00,
2013-01-05 23:20:00,40.3,40.0,30.34,ENE,70,0.0,0.0,99,0.00,,---,0.00,VWS V14.00,2013-01-06 04:20:00,
2013-01-05 23:25:00,40.3,40.0,30.35,ENE,69,0.0,0.0,99,0.00,,---,0.00,VWS V14.00,2013-01-06 04:25:00,
2013-01-05 23:30:00,40.4,40.1,30.36,ENE,69,0.0,0.0,99,0.00,,---,0.00,VWS V14.00,2013-01-06 04:30:00,
2013-01-05 23:35:00,40.4,40.4,30.35,ENE,69,0.0,0.0,100,0.00,,---,0.00,VWS V14.00,2013-01-06 04:35:00,
2013-01-05 23:40:00,40.5,40.5,30.35,ENE,69,0.0,0.0,100,0.00,,---,0.00,VWS V14.00,2013-01-06 04:40:00,
2013-01-05 23:45:00,40.5,40.5,30.35,ENE,69,0.0,0.0,100,0.00,,---,0.00,VWS V14.00,2013-01-06 04:45:00,
2013-01-05 23:50:00,40.6,40.6,30.35,ENE,69,0.0,0.0,100,0.00,,---,0.00,VWS V14.00,2013-01-06 04:50:00,
2013-01-05 23:55:00,40.7,40.7,30.35,ENE,69,0.0,0.0,100,0.00,,---,0.00,VWS V14.00,2013-01-06 04:55:00,